Total_Precipitation_Accumulation
1.47 1.40 1.49 1.76 1.86 1.92 2.16 2.27 2.14 2.05 1.99 1.88 1.73 1.58 1.49 1.40 1.41 1.45 1.96 2.62 3.27 3.95 4.43 4.44 4.05 3.52 3.26 3.32 3.20 3.04 2.88 3.05 3.63 3.77 3.66 3.62 3.47 3.50 3.30 2.91 2.66 2.60 2.59
1.48 1.46 1.37 1.54 1.85 1.97 2.05 2.05 1.96 1.99 1.98 1.92 1.78 1.71 1.66 1.45 1.55 1.56 1.71 1.87 2.22 2.78 3.60 4.22 4.10 3.63 3.33 3.23 3.09 2.98 2.83 2.81 3.41 3.68 3.70 3.64 3.53 3.52 3.12 2.81 2.72 2.62 2.66
1.45 1.41 1.32 1.44 1.71 1.93 2.01 2.01 1.93 1.99 1.90 1.77 1.80 1.79 1.74 1.61 1.67 1.71 1.71 1.71 1.68 1.99 2.71 3.52 3.80 3.72 3.59 3.52 3.28 3.10 2.99 3.02 3.14 3.42 3.59 3.62 3.52 3.38 3.02 2.75 2.58 2.66 2.78
1.45 1.56 1.50 1.44 1.65 1.89 2.15 2.32 2.18 2.11 2.04 1.94 1.96 1.90 1.76 1.77 1.73 1.73 1.70 1.72 1.78 1.67 1.91 2.32 2.85 3.38 3.64 3.84 3.63 3.42 3.07 2.78 2.72 2.99 3.30 3.52 3.59 3.36 3.24 2.99 2.76 2.78 2.98
1.49 1.67 1.78 1.69 1.75 1.98 2.10 2.17 2.20 2.10 2.08 2.02 1.85 1.80 1.71 1.77 1.81 1.65 1.64 1.66 1.77 1.78 1.73 1.57 1.82 2.38 3.02 3.76 4.00 3.69 3.37 2.94 2.64 2.69 2.92 3.23 3.48 3.40 3.26 3.09 2.89 2.79 2.87
1.85 1.91 1.99 1.98 1.98 2.09 2.10 2.27 2.50 2.34 2.12 2.07 1.86 1.74 1.69 1.70 1.72 1.70 1.74 1.75 1.77 1.78 1.78 1.63 1.59 1.59 2.06 2.85 3.55 3.53 3.54 3.34 2.90 2.72 2.80 2.89 3.10 3.27 3.07 3.00 3.02 2.89 2.80
2.02 2.10 2.17 2.24 2.19 2.12 2.18 2.38 2.79 2.74 2.39 2.13 2.11 2.00 1.85 1.78 1.80 1.73 1.83 1.90 1.81 1.79 1.86 1.80 1.68 1.55 1.50 1.74 2.39 3.07 3.36 3.55 3.32 3.04 2.94 2.98 2.98 3.19 3.08 2.93 3.14 3.17 3.03
2.01 2.07 2.28 2.40 2.37 2.39 2.46 2.51 2.80 3.02 2.77 2.54 2.55 2.74 2.51 2.29 1.91 1.59 1.61 1.68 1.73 1.78 1.80 1.82 1.75 1.63 1.60 1.55 1.50 2.06 2.61 3.08 3.37 3.25 3.08 3.05 3.07 3.19 3.28 3.19 3.19 3.39 3.34
2.21 2.14 2.21 2.40 2.43 2.44 2.53 2.71 3.00 3.38 3.42 3.09 2.83 3.03 2.81 2.49 2.36 1.83 1.50 1.51 1.63 1.75 1.79 1.86 1.82 1.71 1.67 1.73 1.54 1.43 1.67 2.20 3.02 3.41 3.44 3.38 3.30 3.31 3.34 3.38 3.56 3.52 3.49
2.19 2.17 2.20 2.34 2.51 2.67 2.83 2.86 2.80 3.28 3.69 3.50 3.22 2.81 2.51 2.36 2.49 2.36 1.87 1.53 1.55 1.59 1.66 1.68 1.79 1.88 1.83 1.77 1.64 1.27 1.21 1.53 2.47 3.41 3.77 3.65 3.45 3.37 3.52 3.68 3.72 3.42 3.33
2.30 2.22 2.19 2.20 2.22 2.35 2.52 2.67 2.72 2.99 3.27 3.51 3.48 3.21 2.88 2.68 2.20 2.20 2.27 2.01 1.72 1.46 1.43 1.57 1.76 1.85 1.86 1.75 1.77 1.40 1.17 1.13 1.56 2.47 3.31 3.66 3.61 3.57 3.82 3.92 3.68 3.41 3.28
2.23 2.12 2.05 2.10 2.10 2.08 2.22 2.38 2.54 2.82 3.02 3.19 3.27 3.18 3.10 3.01 2.68 2.35 2.13 2.08 1.93 1.67 1.49 1.49 1.56 1.65 1.73 1.68 1.57 1.57 1.35 1.11 1.12 1.43 2.06 2.87 3.25 3.40 3.58 3.78 3.76 3.49 3.48
1.80 1.78 1.70 1.72 1.83 1.88 2.03 2.12 2.11 2.19 2.42 2.65 2.84 2.89 2.93 2.83 2.75 2.67 2.49 2.22 1.94 1.60 1.57 1.48 1.45 1.56 1.58 1.69 1.67 1.80 1.45 1.24 1.13 1.13 1.35 1.75 2.17 2.60 3.14 3.45 3.69 3.74 3.78
1.45 1.42 1.42 1.43 1.49 1.53 1.71 1.93 1.98 2.01 2.08 2.20 2.27 2.57 2.76 2.72 2.75 2.55 2.43 2.44 2.17 1.81 1.61 1.39 1.27 1.32 1.40 1.52 1.80 1.92 1.43 1.33 1.18 1.20 1.29 1.32 1.51 1.77 2.31 2.82 3.10 3.35 3.56
1.23 1.22 1.26 1.35 1.41 1.38 1.44 1.56 1.76 1.86 1.93 1.99 2.00 2.21 2.40 2.49 2.51 2.35 2.38 2.47 2.36 2.03 1.76 1.55 1.44 1.36 1.34 1.39 1.69 1.59 1.44 1.40 1.30 1.29 1.29 1.26 1.31 1.46 1.83 1.98 2.21 2.40 2.59
1.13 1.15 1.13 1.19 1.26 1.29 1.36 1.45 1.47 1.59 1.70 1.86 2.02 2.14 2.20 2.24 2.31 2.25 2.25 2.36 2.36 2.18 1.90 1.62 1.44 1.35 1.39 1.32 1.53 1.46 1.55 1.62 1.34 1.22 1.18 1.21 1.21 1.21 1.29 1.39 1.48 1.63 1.75
0.97 0.98 1.02 1.11 1.15 1.17 1.22 1.21 1.23 1.30 1.39 1.51 1.56 1.69 1.92 2.11 2.19 2.20 2.27 2.34 2.35 2.22 1.94 1.75 1.49 1.43 1.53 1.45 1.46 1.45 1.57 1.61 1.38 1.26 1.12 1.09 1.12 1.09 1.18 1.24 1.19 1.22 1.34
0.91 0.93 1.02 1.06 1.06 1.12 1.16 1.14 1.14 1.20 1.32 1.41 1.43 1.45 1.55 1.82 1.98 2.10 2.21 2.25 2.29 2.25 2.05 2.00 1.87 1.61 1.52 1.48 1.58 1.68 1.64 1.64 1.57 1.55 1.40 1.19 1.13 1.11 1.13 1.19 1.16 1.10 1.10
1.07 1.09 1.09 1.12 1.07 1.08 1.11 1.12 1.16 1.22 1.23 1.28 1.31 1.32 1.42 1.54 1.69 1.81 1.95 2.08 2.13 2.23 2.21 2.00 2.03 1.92 1.67 1.61 1.62 1.71 1.78 1.90 1.77 1.72 1.75 1.57 1.37 1.30 1.26 1.20 1.15 1.13 1.13
0.98 1.00 1.04 1.11 1.19 1.23 1.20 1.17 1.24 1.27 1.21 1.20 1.24 1.30 1.35 1.37 1.56 1.80 1.91 2.02 2.07 2.18 2.31 2.19 2.10 2.02 1.85 1.76 1.74 1.77 1.94 2.04 2.02 1.76 1.65 1.60 1.54 1.45 1.40 1.34 1.22 1.23 1.23
0.89 0.87 0.94 1.00 1.11 1.20 1.24 1.24 1.14 1.10 1.14 1.18 1.14 1.12 1.20 1.33 1.47 1.68 1.78 2.02 2.06 2.20 2.30 2.31 2.17 1.98 1.83 1.76 1.73 1.74 1.93 2.13 2.15 2.03 1.86 1.64 1.53 1.38 1.31 1.34 1.35 1.35 1.32
0.96 0.89 0.87 0.84 0.87 0.91 1.12 1.13 1.01 0.90 0.99 1.14 1.19 1.14 1.12 1.20 1.30 1.41 1.46 1.71 1.91 2.04 2.15 2.15 2.13 1.97 1.82 1.74 1.85 1.91 1.94 2.02 2.10 2.02 1.83 1.86 1.77 1.59 1.43 1.32 1.43 1.51 1.52
0.99 0.96 0.85 0.76 0.76 0.81 0.91 0.89 0.95 0.90 0.93 1.02 1.11 1.16 1.20 1.17 1.26 1.34 1.38 1.50 1.60 1.66 1.79 1.91 1.92 1.82 1.81 1.76 1.86 1.95 1.97 1.91 1.80 1.84 1.78 1.86 1.86 1.67 1.48 1.40 1.49 1.45 1.45
0.88 0.94 0.88 0.83 0.87 0.87 0.90 0.91 0.95 0.90 0.99 1.09 1.09 1.08 1.21 1.26 1.31 1.48 1.47 1.55 1.48 1.41 1.46 1.53 1.67 1.73 1.70 1.80 1.90 2.09 2.21 2.09 1.93 1.92 1.85 1.78 1.69 1.59 1.41 1.40 1.48 1.35 1.32
0.82 0.75 0.78 0.92 0.94 0.98 1.10 1.02 0.93 0.93 1.03 1.09 1.05 1.08 1.20 1.28 1.50 1.63 1.62 1.60 1.48 1.40 1.49 1.60 1.72 1.82 1.85 1.92 2.01 2.09 2.14 2.16 2.08 2.01 1.85 1.70 1.57 1.56 1.49 1.39 1.37 1.43 1.37
0.83 0.83 0.85 0.95 0.99 1.02 1.09 0.98 0.96 0.99 1.10 1.18 1.14 1.12 1.34 1.32 1.48 1.55 1.56 1.66 1.63 1.49 1.47 1.48 1.53 1.60 1.60 1.70 1.97 1.99 2.13 2.23 2.07 2.01 1.87 1.76 1.69 1.80 1.86 1.58 1.36 1.33 1.33